COSMOS 2579

导读

COSMOS 2579是独立国协(CIS)于2024年10月31日发射的卫星,隶属于俄罗斯历史悠久的“宇宙”(COSMOS)卫星系列。该系列自1962年起持续发射,以多用途、尤其是军用航天任务为主,多数承担侦察、技术试验或航天验证任务。作为系列最新成员之一,COSMOS 2579延续了该系列保密传统,具体任务细节暂未公开,它的成功发射延续了俄罗斯在航天侦察与空间技术领域的持续探索。

基本信息
目录编号:
61730
目录名称:
COSMOS 2579
国际标识:
2024-197A
轨道中心:
EARTH
卫星名称:
COSMOS 2579
卫星全名:
COSMOS 2579
卫星状态:
在轨 (已飞行683 天)
发射日期:
2024-10-31 UTC
国别 :
俄罗斯(独联体) (CIS)
星等 :
--
该卫星已列入 空间交会检测服务 Space Conjunction Data Service (SCDS) ,当前飞行风险评估等级: 无高风险
轨道信息
数据来源 国际轨道数据
星历时间: 2026-09-14T10:30:32+0800
5小时前
查看轨道信息
半长轴: 6867.707km
偏心率: 0.0003124
轨道倾角: 97.557°
近地点辐角 81.969°
升交点赤经 181.939°
平近点角 278.190°
近地点: 487.424km
远地点: 491.716km
周期: 94.401分钟
每日圈数: 15.25405
详细信息
使用方式:
暂无
2D轨道图
3D轨道图
轨道高度分析图
轨道倾角分析图
轨道综合分析图
查看轨道综合分析图
交会数据列表
事件ID 空间交会对象 最接近时刻(TCA) 交会距离 交会风险概率(CRP) 交会风险指数(CRI) 操作
CDM_260916-104006-047506-173021
2026-09-16T
10:40:45+0000
0.688 km
远距离
8.914427E-5 中风险 0.74
CDM_260914-183106-173006-419925
SJ-26 (64199)
2026-09-14T
18:31:12+0000
2.245 km
极远距离
2.165621E-6 低风险 0.42
与全量物体交会距离演化趋势 订阅飞行安全评估服务
与全量物体交会风险概率演化趋势 订阅飞行安全评估服务